• Join FlightAware (Why Join?)
  • Login
  • US Flag GB Flag 
08:21 EDT


 

Airport Tracker/Info


-or-


 

Live Flight TrackerFlight Track Log ✈ DAL1117 ✈ 22-Apr-2013 ✈ KDTW - KLAS

Flight Track Log - Related Links

Times and Time Zones

All times are in EDT time to prevent confusion due to time zone crossing. See the DAL1117 flight status page for this flight to view local times or setup timezone preferences in your user account.

Time Position Orientation Groundspeed Altitude Reporting Facility
EDT Latitude Longitude Course Direction KTS MPH feet Rate Location/Type
21:55 42.2008 -83.3578 292° West 160 184 1,500  Level FAA TRACON SMA TRACON (SMA)
21:55 42.1911 -83.3744 232° Southwest 179 206 2,200 1,800 Climbing FAA TRACON SMA TRACON (SMA)
21:55 42.1797 -83.3947 233° Southwest 198 228 2,700 1,320 Climbing FAA TRACON SMA TRACON (SMA)
21:56 42.1694 -83.4131 233° Southwest 223 257 3,100 1,920 Climbing FAA TRACON SMA TRACON (SMA)
21:56 42.1542 -83.4394 232° Southwest 244 281 4,000 3,120 Climbing FAA TRACON SMA TRACON (SMA)
21:56 42.1394 -83.4644 232° Southwest 249 287 5,200 3,360 Climbing FAA TRACON SMA TRACON (SMA)
21:57 42.1292 -83.4894 241° Southwest 257 296 6,300 3,060 Climbing FAA TRACON SMA TRACON (SMA)
21:57 42.1278 -83.5247 267° West 266 306 7,300 2,760 Climbing FAA TRACON SMA TRACON (SMA)
21:57 42.1392 -83.5539 298° West 290 334 8,100 3,180 Climbing FAA TRACON SMA TRACON (SMA)
21:58 42.3336 -83.8730 292° West  Level FlightAware Approximate
21:58 42.1519 -83.5814 302° West 278 320 9,400  Level FAA TRACON SMA TRACON (SMA)
21:58 42.1672 -83.6164 301° West 282 325 10,400 2,100 Climbing FAA TRACON SMA TRACON (SMA)
21:58 42.1800 -83.6469 299° West 302 348 10,800 1,320 Climbing FAA TRACON SMA TRACON (SMA)
21:59 42.3722 -84.0017 292° West  Level FlightAware Approximate
21:59 42.1944 -83.6789 301° West 330 380 11,300  Level FAA TRACON SMA TRACON (SMA)
21:59 42.2131 -83.7200 301° West 329 379 12,400 2,580 Climbing FAA TRACON SMA TRACON (SMA)
22:00 42.4108 -84.1304 292° West  Level FlightAware Approximate
22:00 42.2275 -83.7522 301° West 327 376 13,100  Level FAA TRACON SMA TRACON (SMA)
22:00 42.2431 -83.7850 303° West 334 384 13,800 2,280 Climbing FAA TRACON SMA TRACON (SMA)
22:00 42.2586 -83.8194 301° West 346 398 14,600 2,460 Climbing FAA TRACON SMA TRACON (SMA)
22:01 42.3283 -83.9747 301° West 351 404 17,900 2,160 Climbing FAA TRACON SMA TRACON (SMA)
22:02 42.3447 -84.0100 302° West 361 415 18,300 1,260 Climbing FAA TRACON SMA TRACON (SMA)
22:03 42.3836 -84.0961 301° West 391 450 19,200 1,620 Climbing FAA TRACON SMA TRACON (SMA)
22:03 42.4014 -84.1350 302° West 394 453 19,900 2,460 Climbing FAA TRACON SMA TRACON (SMA)
22:03 42.4211 -84.1803 301° West 393 452 20,800 2,400 Climbing FAA TRACON SMA TRACON (SMA)
22:03 42.4278 -84.2289 281° West 390 449 21,500 1,740 Climbing FAA TRACON SMA TRACON (SMA)
22:04 42.4297 -84.2739 273° West 393 452 22,000 1,500 Climbing FAA TRACON SMA TRACON (SMA)
22:04 42.4306 -84.3197 271° West 396 456 22,500 1,500 Climbing FAA TRACON SMA TRACON (SMA)
22:04 42.4328 -84.3775 273° West 399 459 23,000 1,500 Climbing FAA TRACON SMA TRACON (SMA)
22:05 42.4342 -84.4244 272° West 404 465 23,500 1,320 Climbing FAA TRACON SMA TRACON (SMA)
22:05 42.4353 -84.4719 272° West 408 470 23,900 720 Climbing FAA TRACON SMA TRACON (SMA)
22:05 42.4356 -84.4839 272° West 409 471 24,000 1,500 Climbing FAA TRACON SMA TRACON (SMA)
22:07 42.4425 -84.7772 272° West 419 482 26,900 1,920 Climbing Chicago Center
22:08 42.4461 -84.9322 272° West 414 476 29,200 1,740 Climbing Chicago Center
22:09 42.4494 -85.0806 272° West 398 458 30,500 1,080 Climbing Chicago Center
22:10 42.4522 -85.2339 271° West 404 465 31,500 960 Climbing Chicago Center
22:11 42.4550 -85.3875 271° West 409 471 32,500 1,140 Climbing Chicago Center
22:12 42.4581 -85.5719 271° West 409 471 33,900 1,200 Climbing Chicago Center
22:13 42.4608 -85.7192 272° West 396 456 35,000 840 Climbing Chicago Center
22:14 42.4622 -85.8697 271° West 398 458 35,700 480 Climbing Chicago Center
22:15 42.4647 -86.0203 271° West 398 458 36,000 120 Climbing Chicago Center
22:16 42.4569 -86.1753 266° West 408 470 36,000  Level Chicago Center
22:17 42.4375 -86.3300 260° West 417 480 36,000  Level Chicago Center
22:18 42.4186 -86.4831 261° West 414 476 36,000 300 Level Chicago Center
22:19 42.3992 -86.6344 260° West 410 472 36,700 720 Climbing Chicago Center
22:21 42.3792 -86.7944 260° West 400 460 37,600 600 Climbing Chicago Center
22:22 42.3608 -86.9386 260° West 392 451 38,000 180 Climbing Chicago Center
22:23 42.3414 -87.0811 260° West 391 450 38,000  Level Chicago Center
22:24 42.3167 -87.2611 260° West 409 471 38,000  Level Chicago Center
22:25 42.2958 -87.4131 260° West 416 479 38,000  Level Chicago Center
22:26 42.2761 -87.5619 260° West 409 471 38,000  Level Chicago Center
22:27 42.2550 -87.7103 259° West 408 470 38,000  Level Chicago Center
22:28 42.2350 -87.8578 260° West 405 466 38,000  Level Chicago Center
22:29 42.2125 -88.0047 258° West 405 466 38,000  Level Chicago Center
22:30 42.1867 -88.1478 256° West 400 460 38,000  Level Chicago Center
22:31 42.1564 -88.3222 257° West 401 461 38,000  Level Chicago Center
22:32 42.1292 -88.4683 256° West 404 465 38,000  Level Chicago Center
22:33 42.1033 -88.6131 257° West 403 464 38,000  Level Chicago Center
22:34 42.0769 -88.7589 256° West 405 466 38,000  Level Chicago Center
22:35 42.0500 -88.9058 256° West 407 468 38,000  Level Chicago Center
22:36 42.0236 -89.0514 256° West 405 466 38,000  Level Chicago Center
22:37 41.9914 -89.2283 256° West 410 472 38,000  Level Chicago Center
22:38 41.9647 -89.3733 256° West 406 467 38,000  Level Chicago Center
22:39 41.9358 -89.5183 255° West 405 466 38,000  Level Chicago Center
22:40 41.9086 -89.6628 256° West 403 464 38,000  Level Chicago Center
22:41 41.8808 -89.8097 256° West 407 468 38,000  Level Chicago Center
22:42 41.8556 -89.9483 256° West 407 468 38,000  Level Chicago Center
22:43 41.8222 -90.1228 256° West 405 466 38,000  Level Chicago Center
22:44 41.7961 -90.2533 255° West 406 467 38,000  Level Chicago Center
22:45 41.7689 -90.4042 256° West 414 476 38,000  Level Chicago Center
22:46 41.7522 -90.5517 261° West 405 466 38,000  Level Chicago Center
22:47 41.7314 -90.7103 260° West 399 459 38,000  Level Chicago Center
22:48 41.7131 -90.8544 260° West 397 457 38,000  Level Chicago Center
22:49 41.6944 -90.9983 260° West 395 455 38,000  Level Chicago Center
22:50 41.6758 -91.1433 260° West 396 456 38,000  Level Chicago Center
22:51 41.6536 -91.3139 260° West 392 451 38,000  Level Chicago Center
22:52 41.6350 -91.4572 260° West 393 452 38,000  Level Chicago Center
22:53 41.6156 -91.5969 260° West 386 444 38,000  Level Chicago Center
22:54 41.5969 -91.7383 260° West 388 447 38,000  Level Chicago Center
22:55 41.5778 -91.8789 260° West 387 445 38,000  Level Chicago Center
22:56 41.5578 -92.0197 259° West 388 447 38,000  Level Chicago Center
22:57 41.5378 -92.1600 259° West 388 447 38,000  Level Chicago Center
22:58 41.5181 -92.2997 259° West 386 444 38,000  Level Chicago Center
22:59 41.4983 -92.4400 259° West 388 447 38,000  Level Chicago Center
23:00 41.4775 -92.5836 259° West 389 448 38,000  Level Chicago Center
23:01 41.4697 -92.6408 260° West 388 447 38,000  Level Minneapolis Center
23:02 41.4494 -92.7783 259° West 385 443 38,000  Level Minneapolis Center
23:03 41.4292 -92.9178 259° West 387 445 38,000  Level Minneapolis Center
23:04 41.4081 -93.0572 259° West 387 445 38,000  Level Minneapolis Center
23:05 41.3828 -93.2222 259° West 386 444 38,000  Level Minneapolis Center
23:06 41.3617 -93.3597 258° West 385 443 38,000  Level Minneapolis Center
23:07 41.3414 -93.4967 259° West 384 442 38,000  Level Minneapolis Center
23:08 41.3225 -93.6278 259° West 375 432 38,000  Level Minneapolis Center
23:09 41.3011 -93.7653 258° West 379 436 38,000  Level Minneapolis Center
23:10 41.2794 -93.9014 258° West 380 437 38,000  Level Minneapolis Center
23:11 41.2594 -94.0378 259° West 380 437 38,000  Level Minneapolis Center
23:12 41.2369 -94.1739 258° West 380 437 38,000  Level Minneapolis Center
23:13 41.2111 -94.3347 258° West 381 438 38,000  Level Minneapolis Center
23:14 41.1889 -94.4703 258° West 378 435 38,000  Level Minneapolis Center
23:15 41.1667 -94.6056 258° West 375 432 38,000  Level Minneapolis Center
23:16 41.1414 -94.7656 258° West 373 429 38,000  Level Minneapolis Center
23:17 41.1181 -94.9039 257° West 378 435 38,000  Level Minneapolis Center
23:18 41.0953 -95.0394 257° West 379 436 38,000  Level Minneapolis Center
23:19 41.0719 -95.1728 257° West 375 432 38,000  Level Minneapolis Center
23:20 41.0494 -95.3064 257° West 373 429 38,000  Level Minneapolis Center
23:21 41.0261 -95.4408 257° West 373 429 38,000  Level Minneapolis Center
23:22 41.0036 -95.5744 257° West 372 428 38,000  Level Minneapolis Center
23:23 40.9803 -95.7069 257° West 369 425 38,000  Level Minneapolis Center
23:24 40.9575 -95.8422 257° West 372 428 38,000  Level Minneapolis Center
23:25 40.9342 -95.9758 257° West 372 428 38,000  Level Minneapolis Center
23:26 40.9100 -96.1089 257° West 371 427 38,000  Level Minneapolis Center
23:27 40.8811 -96.2686 257° West 370 426 38,000  Level Minneapolis Center
23:28 40.8583 -96.4008 257° West 368 423 38,000  Level Minneapolis Center
23:29 40.8331 -96.5314 256° West 367 422 38,000  Level Minneapolis Center
23:30 40.8100 -96.6639 257° West 369 425 38,000  Level Minneapolis Center
23:31 40.7861 -96.7950 257° West 367 422 38,000  Level Minneapolis Center
23:32 40.7608 -96.9267 256° West 369 425 38,000  Level Minneapolis Center
23:33 40.7367 -97.0586 256° West 371 427 38,000  Level Minneapolis Center
23:34 40.7119 -97.1906 256° West 371 427 38,000  Level Minneapolis Center
23:35 40.6872 -97.3236 256° West 373 429 38,000  Level Minneapolis Center
23:36 40.6625 -97.4539 256° West 375 432 38,000  Level Minneapolis Center
23:37 40.6364 -97.5886 256° West 378 435 38,000  Level Minneapolis Center
23:38 40.6114 -97.7247 256° West 381 438 38,000  Level Minneapolis Center
23:40 40.5786 -97.8856 255° West 379 436 38,000  Level Minneapolis Center
23:41 40.5528 -98.0200 256° West 379 436 38,000  Level Minneapolis Center
23:42 40.5269 -98.1542 256° West 378 435 38,000  Level Minneapolis Center
23:43 40.5000 -98.2883 255° West 378 435 38,000  Level Minneapolis Center
23:44 40.4736 -98.4200 255° West 376 433 38,000  Level Minneapolis Center
23:45 40.4472 -98.5517 255° West 373 429 38,000  Level Minneapolis Center
23:46 40.4214 -98.6794 255° West 367 422 38,000  Level Minneapolis Center
23:47 40.3961 -98.8069 255° West 361 415 38,000  Level Minneapolis Center
23:48 40.3700 -98.9353 255° West 361 415 38,000  Level Minneapolis Center
23:48 40.3592 -98.9869 255° West 363 418 38,000  Level Denver Center
23:49 40.3331 -99.1167 255° West 365 420 38,000  Level Denver Center
23:50 40.3050 -99.2447 254° West 366 421 38,000  Level Denver Center
23:51 40.2786 -99.3767 255° West 371 427 38,000  Level Denver Center
23:52 40.2500 -99.5089 254° West 375 432 38,000  Level Denver Center
23:53 40.2225 -99.6386 255° West 372 428 38,000  Level Denver Center
23:54 40.1956 -99.7683 255° West 370 426 38,000  Level Denver Center
23:55 40.1644 -99.9117 254° West 368 423 38,000  Level Denver Center
23:56 40.1375 -100.0372 254° West 373 429 38,000  Level Denver Center
23:57 40.1058 -100.1844 254° West 375 432 38,000  Level Denver Center
23:58 40.0786 -100.3086 254° West 372 428 38,000  Level Denver Center
23:59 40.0514 -100.4319 254° West 368 423 38,000  Level Denver Center
00:00 40.0194 -100.5772 254° West 371 427 38,000  Level Denver Center
00:01 39.9925 -100.6997 254° West 367 422 38,000  Level Denver Center
00:02 39.9653 -100.8181 253° West 357 411 38,000  Level Denver Center
00:03 39.9333 -100.9578 253° West 359 413 38,000  Level Denver Center
00:04 39.9072 -101.0781 254° West 360 414 38,000  Level Denver Center
00:05 39.8803 -101.1964 254° West 357 411 38,000  Level Denver Center
00:06 39.8483 -101.3397 254° West 368 423 38,000  Level Denver Center
00:07 39.8197 -101.4628 253° West 371 427 38,000  Level Denver Center
00:08 39.7875 -101.6014 253° West 361 415 38,000  Level Denver Center
00:09 39.7592 -101.7208 253° West 360 414 38,000  Level Denver Center
00:10 39.7331 -101.8367 254° West 351 404 38,000  Level Denver Center
00:11 39.7008 -101.9703 253° West 346 398 38,000  Level Denver Center
00:13 39.6744 -102.0869 254° West 350 403 38,000  Level Denver Center
00:14 39.6458 -102.2019 252° West 349 402 38,000  Level Denver Center
00:15 39.6142 -102.3375 253° West 352 405 38,000  Level Denver Center
00:16 39.5878 -102.4478 253° West 352 405 38,000  Level Denver Center
00:17 39.5536 -102.5872 252° West 348 400 38,000  Level Denver Center
00:18 39.5247 -102.7089 253° West 350 403 38,000  Level Denver Center
00:19 39.4947 -102.8306 252° West 349 402 38,000  Level Denver Center
00:20 39.4647 -102.9517 252° West 351 404 38,000  Level Denver Center
00:21 39.4353 -103.0722 252° West 348 400 38,000  Level Denver Center
00:22 39.4053 -103.1953 253° West 357 411 38,000  Level Denver Center
00:23 39.3750 -103.3178 252° West 354 407 38,000  Level Denver Center
00:24 39.3439 -103.4406 252° West 356 410 38,000  Level Denver Center
00:25 39.3136 -103.5653 253° West 360 414 38,000  Level Denver Center
00:26 39.2808 -103.6900 251° West 363 418 38,000  Level Denver Center
00:27 39.2494 -103.8142 252° West 360 414 38,000  Level Denver Center
00:28 39.2181 -103.9375 252° West 359 413 38,000  Level Denver Center
00:29 39.1869 -104.0633 252° West 362 417 38,000  Level Denver Center
00:30 39.1528 -104.1928 251° West 374 430 38,000  Level Denver Center
00:31 39.1197 -104.3192 251° West 369 425 38,000  Level Denver Center
00:32 39.0875 -104.4433 252° West 362 417 38,000  Level Denver Center
00:33 39.0544 -104.5694 251° West 365 420 38,000  Level Denver Center
00:34 39.0219 -104.6933 251° West 361 415 38,000  Level Denver Center
00:35 38.9831 -104.8389 251° West 363 418 38,000  Level Denver Center
00:36 38.9514 -104.9594 251° West 353 406 38,000  Level Denver Center
00:37 38.9192 -105.0800 251° West 355 409 38,000  Level Denver Center
00:38 38.8861 -105.2047 251° West 364 419 38,000  Level Denver Center
00:39 38.8511 -105.3331 251° West 376 433 38,000  Level Denver Center
00:40 38.8178 -105.4547 251° West 361 415 38,000  Level Denver Center
00:41 38.7858 -105.5717 251° West 347 399 38,000  Level Denver Center
00:42 38.7522 -105.6936 251° West 358 412 38,000  Level Denver Center
00:43 38.7189 -105.8139 250° West 354 407 38,000  Level Denver Center
00:44 38.6861 -105.9347 251° West 357 411 38,000  Level Denver Center
00:45 38.6519 -106.0583 251° West 364 419 38,000  Level Denver Center
00:46 38.6147 -106.1933 251° West 367 422 38,000  Level Denver Center
00:47 38.5800 -106.3161 250° West 367 422 38,000  Level Denver Center
00:48 38.5381 -106.4625 250° West 366 421 38,000  Level Denver Center
00:50 38.5042 -106.5844 250° West 364 419 38,000  Level Denver Center
00:51 38.4753 -106.6822 249° West 366 421 38,000  Level Denver Center
00:52 38.4339 -106.8294 250° West 367 422 38,000  Level Denver Center
00:53 38.3983 -106.9531 250° West 368 423 38,000  Level Denver Center
00:54 38.3619 -107.0781 250° West 374 430 38,000  Level Denver Center
00:55 38.3267 -107.2003 250° West 362 417 38,000  Level Denver Center
00:56 38.2931 -107.3161 250° West 363 418 38,000  Level Denver Center
00:57 38.2533 -107.4508 249° West 363 418 38,000  Level Denver Center
00:58 38.2203 -107.5661 250° West 361 415 38,000  Level Denver Center
00:59 38.1861 -107.6822 250° West 363 418 38,000  Level Denver Center
01:00 38.1458 -107.8192 250° West 368 423 38,100  Climbing Denver Center
01:01 38.1106 -107.9367 249° West 371 427 38,000 -60 Descending Denver Center
01:02 38.0758 -108.0528 249° West 369 425 38,000  Level Denver Center
01:03 38.0364 -108.1831 249° West 364 419 38,000  Level Denver Center
01:04 38.0017 -108.2983 249° West 365 420 38,000  Level Denver Center
01:05 37.9667 -108.4153 249° West 368 423 38,000  Level Denver Center
01:06 37.9258 -108.5506 249° West 367 422 38,000  Level Denver Center
01:07 37.8894 -108.6661 248° West 370 426 38,000  Level Denver Center
01:08 37.8547 -108.7839 250° West 373 429 38,000  Level Denver Center
01:09 37.8119 -108.9178 248° West 368 423 38,000  Level Denver Center
01:10 37.7833 -109.0364 253° West 369 425 38,000  Level Denver Center
01:11 37.7531 -109.1558 252° West 373 429 38,000  Level Denver Center
01:12 37.7172 -109.2964 252° West 377 434 38,000  Level Denver Center
01:13 37.6883 -109.4186 253° West 378 435 38,000 -300 Level Denver Center
01:14 37.6567 -109.5383 252° West 377 434 37,500 -780 Descending Denver Center
01:15 37.6219 -109.6792 253° West 377 434 36,500 -780 Descending Denver Center
01:16 37.5914 -109.8003 252° West 379 436 36,000 -300 Descending Denver Center
01:17 37.5592 -109.9242 252° West 386 444 36,000  Level Denver Center
01:18 37.5236 -110.0664 253° West 382 440 36,000  Level Denver Center
01:19 37.4919 -110.1864 252° West 379 436 36,000  Level Denver Center
01:20 37.4575 -110.3203 252° West 381 438 36,000  Level Denver Center
01:21 37.4242 -110.4458 252° West 383 441 36,000  Level Denver Center
01:22 37.3919 -110.5739 252° West 385 443 36,000  Level Denver Center
01:23 37.3578 -110.7019 251° West 385 443 36,000  Level Denver Center
01:24 37.3247 -110.8289 252° West 384 442 36,000 -120 Level Denver Center
01:25 37.2903 -110.9567 251° West 385 443 35,800 -600 Descending Denver Center
01:26 37.2558 -111.0831 251° West 382 440 34,900 -960 Descending Denver Center
01:27 37.2217 -111.2111 252° West 386 444 33,900 -1,020 Descending Denver Center
01:28 37.1864 -111.3406 251° West 393 452 32,900 -960 Descending Denver Center
01:29 37.1508 -111.4725 251° West 398 458 32,000 -480 Descending Denver Center
01:30 37.1169 -111.6058 252° West 400 460 32,000  Level Denver Center
01:31 37.0806 -111.7414 251° West 407 468 32,000  Level Denver Center
01:32 37.0508 -111.8803 255° West 412 474 32,000  Level Denver Center
01:33 37.0222 -112.0158 255° West 406 467 32,000  Level Denver Center
01:34 36.9994 -112.1258 255° West 405 466 32,000  Level Los Angeles Center
01:35 36.9717 -112.2631 256° West 405 466 32,000  Level Los Angeles Center
01:36 36.9422 -112.3989 255° West 405 466 32,000  Level Los Angeles Center
01:37 36.9131 -112.5356 255° West 406 467 32,000  Level Los Angeles Center
01:38 36.8842 -112.6714 255° West 404 465 32,000  Level Los Angeles Center
01:39 36.8547 -112.8078 255° West 405 466 32,000  Level Los Angeles Center
01:40 36.8258 -112.9453 255° West 408 470 32,000  Level Los Angeles Center
01:41 36.7925 -113.0811 253° West 409 471 32,000  Level Los Angeles Center
01:42 36.7547 -113.2167 251° West 413 475 32,000  Level Los Angeles Center
01:43 36.7169 -113.3506 251° West 410 472 32,000  Level Los Angeles Center
01:44 36.6792 -113.4869 251° West 415 478 32,000  Level Los Angeles Center
01:45 36.6408 -113.6228 251° West 415 478 32,000 -1,740 Level Los Angeles Center
01:46 36.5950 -113.7847 251° West 415 478 28,500 -3,480 Descending Los Angeles Center
01:47 36.5569 -113.9175 250° West 410 472 25,000 -3,480 Descending Los Angeles Center
01:48 36.5197 -114.0464 250° West 402 463 21,500 -3,600 Descending Los Angeles Center
01:49 36.4856 -114.1833 253° West 400 460 17,700 -3,180 Descending Los Angeles Center
01:50 36.4533 -114.2811 248° West 381 438 15,100 -3,120 Descending Los Angeles Center
01:50 36.4383 -114.3392 252° West 374 430 13,600 -2,400 Descending Los Angeles Center
01:51 36.4169 -114.3969 245° Southwest 364 419 12,700 -1,920 Descending Los Angeles Center
01:51 36.3850 -114.4403 228° Southwest 366 421 11,700 -1,500 Descending Los Angeles Center
01:52 36.3422 -114.4764 214° Southwest 357 411 11,200 -840 Descending Los Angeles Center
01:52 36.3011 -114.5197 220° Southwest 323 372 10,700 -840 Descending Los Angeles Center
01:53 36.2739 -114.5397 211° Southwest 315 362 10,200 -1,620 Descending Los Angeles Center
01:54 36.1839 -114.6242 217° Southwest 292 336 8,000 -1,680 Descending Los Angeles Center
01:55 36.1667 -114.6453 225° Southwest 292 336 8,000  Level Los Angeles Center
01:55 36.1275 -114.6931 225° Southwest 287 330 8,000 -360 Level Los Angeles Center
01:56 36.1019 -114.7736 249° West 250 288 7,400 -840 Descending Los Angeles Center
01:57 36.0781 -114.8508 249° West 235 270 6,400 -1,080 Descending Los Angeles Center
01:58 36.0719 -114.9219 264° West 231 266 5,200 -1,140 Descending Los Angeles Center
01:59 36.0744 -114.9425 279° West 201 231 4,900 -1,020 Descending Los Angeles Center
01:59 36.0739 -114.9850 269° West 204 235 4,200 -1,020 Descending Los Angeles Center
02:00 36.0747 -115.0036 273° West 176 203 3,900 -840 Descending Los Angeles Center
02:00 36.0742 -115.0414 269° West 183 211 3,400 -720 Descending Los Angeles Center
02:01 36.0731 -115.0869 268° West 159 183 2,700 -840 Descending Los Angeles Center
02:02 36.0739 -115.1078 273° West 132 152 2,300 -600 Descending Los Angeles Center
02:02 36.0733 -115.1336 268° West 143 165 2,100 -360 Descending Los Angeles Center